Showing default

SHIYAN 27A, 63599

Orbit data source: Space-Track

SHIYAN 27A, 63599 is a payload satellite owned by CAST (CN) in SSO that was launched on Fri, 18 Apr 2025 UTC via a CHANG ZHENG 6A launch vehicle from the Taiyaun Space Center, China (TSC). Payload-class satellites include a variety of spacecraft equipped with specific instruments for various scientific and technological missions. These include communications satellites like Starlink; space stations such as the ISS; scientific satellites like the Hubble; Earth observation satellites from companies like Planet Labs, Umbra, and HawkEye 360; GPS; miniature CubeSats for education and research; and military/defense satellites.

Loading next visibility...
Identifier
63599, 2025-078A
Orbit
SSO
Country
Flag of CNCN / PRC
Related business
Manufacturer
CAST
Mission
Operational Defense Radar Imaging
Bus & Motor
SW27, Unknown motor
Mass
300 kg wet, ~300 kg dry
Launch date (UTC)
2025-04-18 (6 months ago)
Launch vehicle
CHANG ZHENG 6A
Launch site
Taiyaun Space Center, China (TSC)
Object type
Payload
Rocket body
Debris
Shape & HBR
Box + 1 Pan, 2.4 m
Radar Cross Section
13.200 m², Large (>1 m²)

Expand to show TLE details & history
Last TLE update: 9 hours ago

TLE from 9 hours ago
0 SHIYAN 27A
1 63599U 25078A   25286.95702608  .00000035  00000-0  11162-3 0  9996
2 63599  99.6941 292.8892 0000664  89.4522 270.6692 13.57217920 24137
Epoch: 2025-10-13T22:58Z
TLE epoch observation values (Epoch: 2025-10-13T22:58:07.053Z)
Latitude
-0.00005°
Longitude
-74.39254°
Altitude
1,048.61 km
Speed
7.328 km/s
True Right ascension
19h 31m 33s
True Declination
0° 00' 00"
Sunlit
Object was in daylight at epoch
Visualization orbit readout
Latitude
Unknown
Longitude
Unknown
Altitude
Unknown
Speed
Unknown
Apparent Right ascension
Unknown
Apparent Declination
Unknown
Sunlit
N/A
Visualization observer readout
Local Sidereal Time
02:05:07
Azimuth
Unknown
Elevation
Unknown
Doppler factor
Unknown
Orbital elements
Apogee altitude
1,043.604 km
Perigee altitude
1,042.619 km
Semi-major axis
7,421.248 km
Eccentricity
0.00007
Inclination
99.6941°
RAAN
292.8892°
Arg. of periapsis
89.4522°
True anomaly
270.66159°
Mean anomaly
270.6692°
Eccentric anomaly
270.6654°
Mean motion
3.39491 °/min
Orbital period
106.04 mins
BSTAR
0.00011162
Loading maneuver chart data...
Computing Atmospheric mass density...
Loading historical data...
Loading historical data...
Loading historical data...
Loading historical data...
Loading historical data...
Loading historical data...
Loading historical data...

Documentation

Showing up to 5 results
|